Regional Weather Roundup
Issued by NWS Midland/Odessa, TX

Skip options and go directly to product.
Home | Oldest Version | Previous Version | Current Version | All | Graphics & Text | Save Text | Print | Product List | Glossary On

Skip product version selection by date and time.   
232
ASUS44 KMAF 271702
RWRMAF
MIDLAND AREA WEATHER ROUNDUP
NATIONAL WEATHER SERVICE MIDLAND TX
1200 PM CDT WED AUG 27 2014

...IN SOUTHWEST TEXAS AND SOUTHEAST NEW MEXICO...

CITY           SKY/WX    TMP DP  RH WIND       PRES   REMARKS
ALPINE         SUNNY     84  49  29 CALM      30.29R
ANDREWS        FAIR      88  57  34 W8        30.16F
ARTESIA        NOT AVBL
BIG SPRING     SUNNY     89  58  35 S6        30.15S
CARLSBAD       CLOUDY    78  62  57 NW12      30.17S
DRYDEN           N/A     93  63  36 VRB5      30.09S
FORT STOCKTON  SUNNY     87  58  37 NW7       30.15S
GUAD PASS      CLOUDY    75  56  51 MISG      30.32S
HOBBS          MOSUNNY   84  55  37 CALM      30.19F
MARFA          SUNNY     81  55  41 S3        30.29R
MIDLAND AIRPK  SUNNY     89  59  35 CALM      30.14S
MIDLAND INTL   SUNNY     88  62  41 SW8       30.13S
ODESSA         SUNNY     87  62  43 VRB5      30.15S
PECOS          SUNNY     86  60  40 NW6       30.12S
PRESIDIO       FAIR      89  55  30 SE6       30.12S
SEMINOLE       SUNNY     88  54  31 CALM      30.18F
SNYDER         SUNNY     87  65  46 SW8       30.12F
WINK           MOSUNNY   90  56  31 VRB5      30.12S
$$
...OTHER STATIONS IN TEXAS...

CITY           SKY/WX    TMP DP  RH WIND       PRES   REMARKS
ABILENE        PTSUNNY   93  66  40 E9        30.10F
AMARILLO       PTSUNNY   78  65  63 S10       30.18S
AUSTIN         PTSUNNY   91  70  49 NE10      30.04S
BROWNSVILLE    MOSUNNY   95  73  48 N9        29.95S HX 104
CORPUS CHRISTI PTSUNNY   93  71  48 NE14G21   29.97S HX 100
DALLAS FTW     MOSUNNY   90  70  51 E10       30.07S
DEL RIO        SUNNY     90  68  48 S6        30.03S
EL PASO        MOSUNNY   78  64  61 N5        30.21R
HOUSTON INT    MOSUNNY   91  70  49 NE12      30.01S
LUBBOCK        MOSUNNY   88  59  37 SW10      30.16S
SAN ANGELO     SUNNY     90  67  46 S7        30.09F
SAN ANTONIO    MOSUNNY   89  68  49 VRB3      30.05S
WACO           MOSUNNY   90  67  46 VRB7      30.06S
WICHITA FALLS  NOT AVBL
$$
...OTHER LOCATIONS IN NEW MEXICO...

CITY           SKY/WX    TMP DP  RH WIND       PRES   REMARKS
ALAMAGORDO     PTSUNNY   70  64  83 CALM      30.25S
ALBUQUERQUE    MOSUNNY   68  55  63 CALM      30.32S
CANNON AFB     PTSUNNY   78  61  54 SE3       30.21F
CLOVIS           N/A     79  57  47 S3        30.23F
HOLLOMAN AFB   MOSUNNY   72  64  76 NE2       30.23R
ROSWELL        PTSUNNY   76  62  62 CALM      30.20S
RUIDOSO        PTSUNNY   64  57  77 CALM      30.40S
SANTA FE       SUNNY     66  54  65 VRB5      30.35S
TRUTH OR CONSE MOSUNNY   71  60  68 NE6       30.28S
TUCUMCARI        N/A     79  60  52 W9        30.18F
$$

USA.gov is the U.S. government's official web portal to all federal, state and local government web resources and services.